Time,TemperatureF,DewpointF,PressureIn,WindDirection,WindDirectionDegrees,WindSpeedMPH,WindSpeedGustMPH,Humidity,HourlyPrecipIn,Conditions,Clouds,dailyrainin,SoftwareType,DateUTC
2013-05-29 00:02:00,57.0,57.0,30.05,SSE,157,0.0,0.0,99,0.00,,,0.35,,2013-05-29 04:02:00,
2013-05-29 00:13:00,58.0,58.0,30.05,SSE,157,0.0,0.0,99,0.00,,,0.35,,2013-05-29 04:13:00,
2013-05-29 00:23:00,58.0,58.0,30.05,SSE,157,0.0,0.0,99,0.00,,,0.35,,2013-05-29 04:23:00,
2013-05-29 00:33:00,58.0,58.0,30.05,SSE,157,0.0,0.0,99,0.00,,,0.35,,2013-05-29 04:33:00,
2013-05-29 00:42:00,58.0,58.0,30.05,SSE,157,0.0,0.0,99,0.00,,,0.35,,2013-05-29 04:42:00,
2013-05-29 00:52:00,58.0,58.0,30.05,SSE,157,0.0,0.0,99,0.00,,,0.35,,2013-05-29 04:52:00,
2013-05-29 01:03:00,58.0,58.0,30.05,SSE,157,0.0,0.0,99,0.00,,,0.35,,2013-05-29 05:03:00,
2013-05-29 01:12:00,58.0,58.0,30.05,SSE,157,0.0,0.0,99,0.00,,,0.35,,2013-05-29 05:12:00,
2013-05-29 01:22:00,58.0,58.0,30.05,SSE,157,0.0,2.0,99,0.00,,,0.35,,2013-05-29 05:22:00,
2013-05-29 01:33:00,58.0,58.0,30.03,SSE,157,0.0,1.0,99,0.00,,,0.35,,2013-05-29 05:33:00,
2013-05-29 01:42:00,58.0,58.0,30.03,SSE,157,0.0,1.0,99,0.00,,,0.35,,2013-05-29 05:42:00,
2013-05-29 01:52:00,58.0,58.0,30.03,SSE,157,0.0,3.0,99,0.00,,,0.35,,2013-05-29 05:52:00,
2013-05-29 02:02:00,58.0,58.0,30.03,SSE,157,0.0,0.0,99,0.00,,,0.35,,2013-05-29 06:02:00,
2013-05-29 02:12:00,58.0,58.0,30.03,SSE,157,0.0,0.0,99,0.00,,,0.35,,2013-05-29 06:12:00,
2013-05-29 02:21:00,58.0,58.0,30.03,SSE,157,0.0,0.0,99,0.00,,,0.35,,2013-05-29 06:21:00,
2013-05-29 02:32:00,58.0,58.0,30.02,SSE,157,0.0,0.0,99,0.00,,,0.35,,2013-05-29 06:32:00,
2013-05-29 02:42:00,58.0,58.0,30.02,SSE,157,0.0,0.0,99,0.00,,,0.35,,2013-05-29 06:42:00,
2013-05-29 02:52:00,58.0,58.0,30.02,SSE,157,0.0,0.0,99,0.00,,,0.35,,2013-05-29 06:52:00,
2013-05-29 03:01:00,58.0,58.0,30.01,SSE,157,0.0,1.0,99,0.00,,,0.35,,2013-05-29 07:01:00,
2013-05-29 03:11:00,58.0,58.0,30.01,SSE,157,0.0,1.0,99,0.00,,,0.35,,2013-05-29 07:11:00,
2013-05-29 03:22:00,58.0,58.0,30.01,SSE,157,0.0,0.0,99,0.00,,,0.35,,2013-05-29 07:22:00,
2013-05-29 03:34:00,58.0,58.0,30.00,SSE,157,0.0,0.0,99,0.00,,,0.35,,2013-05-29 07:34:00,
2013-05-29 03:42:00,58.0,58.0,30.00,SSE,157,0.0,0.0,99,0.00,,,0.35,,2013-05-29 07:42:00,
2013-05-29 03:52:00,58.0,58.0,30.00,SSE,157,0.0,0.0,99,0.00,,,0.35,,2013-05-29 07:52:00,
2013-05-29 04:02:00,58.0,58.0,30.00,SSE,157,0.0,0.0,99,0.00,,,0.35,,2013-05-29 08:02:00,
2013-05-29 04:11:00,58.0,58.0,30.00,SSE,157,0.0,0.0,99,0.00,,,0.35,,2013-05-29 08:11:00,
2013-05-29 04:22:00,57.0,57.0,30.00,SSE,157,0.0,0.0,99,0.00,,,0.35,,2013-05-29 08:22:00,
2013-05-29 04:32:00,57.0,57.0,30.00,SSE,157,0.0,0.0,99,0.00,,,0.35,,2013-05-29 08:32:00,
2013-05-29 04:42:00,57.0,57.0,30.00,SSE,157,0.0,0.0,99,0.00,,,0.35,,2013-05-29 08:42:00,
2013-05-29 04:52:00,57.0,57.0,30.00,SSE,157,0.0,0.0,99,0.00,,,0.35,,2013-05-29 08:52:00,
2013-05-29 05:01:00,57.0,57.0,30.00,SSE,157,0.0,0.0,99,0.00,,,0.35,,2013-05-29 09:01:00,
2013-05-29 05:11:00,57.0,57.0,30.00,SSE,157,0.0,0.0,99,0.00,,,0.35,,2013-05-29 09:11:00,
2013-05-29 05:21:00,56.0,56.0,30.00,SSE,157,0.0,0.0,99,0.00,,,0.35,,2013-05-29 09:21:00,
2013-05-29 05:33:00,56.0,56.0,29.99,SSE,157,0.0,0.0,99,0.00,,,0.35,,2013-05-29 09:33:00,
2013-05-29 05:42:00,56.0,56.0,29.99,SSE,157,0.0,0.0,99,0.00,,,0.35,,2013-05-29 09:42:00,
2013-05-29 05:52:00,56.0,56.0,29.99,SSE,157,0.0,0.0,99,0.00,,,0.35,,2013-05-29 09:52:00,
2013-05-29 06:03:00,56.0,56.0,29.99,SSE,157,0.0,0.0,99,0.00,,,0.35,,2013-05-29 10:03:00,
2013-05-29 06:12:00,56.0,56.0,29.99,SSE,157,0.0,0.0,99,0.00,,,0.35,,2013-05-29 10:12:00,
2013-05-29 06:22:00,56.0,56.0,29.99,SSE,157,0.0,0.0,99,0.00,,,0.35,,2013-05-29 10:22:00,
2013-05-29 06:33:00,57.0,57.0,30.00,SSE,157,0.0,0.0,99,0.00,,,0.35,,2013-05-29 10:33:00,
2013-05-29 06:42:00,57.0,57.0,30.00,SSE,157,0.0,0.0,99,0.00,,,0.35,,2013-05-29 10:42:00,
2013-05-29 06:52:00,57.0,57.0,30.00,SSE,157,0.0,1.0,99,0.00,,,0.35,,2013-05-29 10:52:00,
2013-05-29 07:02:00,58.0,58.0,30.00,SSE,157,0.0,0.0,99,0.00,,,0.35,,2013-05-29 11:02:00,
2013-05-29 07:12:00,58.0,58.0,30.00,SSE,157,0.0,0.0,99,0.00,,,0.35,,2013-05-29 11:12:00,
2013-05-29 07:22:00,59.0,59.0,30.00,SSE,157,0.0,0.0,99,0.00,,,0.35,,2013-05-29 11:22:00,
2013-05-29 07:32:00,60.0,60.0,30.01,SSE,157,0.0,0.0,99,0.00,,,0.35,,2013-05-29 11:32:00,
2013-05-29 07:42:00,60.0,60.0,30.01,SSE,157,0.0,0.0,99,0.00,,,0.35,,2013-05-29 11:42:00,
2013-05-29 07:52:00,60.0,60.0,30.01,SSE,157,0.0,0.0,99,0.00,,,0.35,,2013-05-29 11:52:00,
2013-05-29 08:01:00,61.0,61.0,30.02,SSE,157,0.0,0.0,99,0.00,,,0.35,,2013-05-29 12:01:00,
2013-05-29 08:11:00,61.0,61.0,30.02,SSE,157,0.0,0.0,99,0.00,,,0.35,,2013-05-29 12:11:00,
2013-05-29 08:22:00,61.0,61.0,30.02,SSE,157,0.0,2.0,99,0.00,,,0.35,,2013-05-29 12:22:00,
2013-05-29 08:32:00,62.0,62.0,30.02,SSE,155,0.0,2.0,99,0.00,,,0.35,,2013-05-29 12:32:00,
2013-05-29 08:42:00,62.0,62.0,30.02,SSE,155,0.0,2.0,99,0.00,,,0.35,,2013-05-29 12:42:00,
2013-05-29 08:52:00,62.0,62.0,30.02,SSE,155,0.0,1.0,99,0.00,,,0.35,,2013-05-29 12:52:00,
2013-05-29 09:02:00,63.0,63.0,30.02,SSE,155,0.0,1.0,99,0.00,,,0.35,,2013-05-29 13:02:00,
2013-05-29 09:11:00,63.0,63.0,30.02,SSE,155,0.0,1.0,99,0.00,,,0.35,,2013-05-29 13:11:00,
2013-05-29 09:22:00,63.0,63.0,30.02,SSE,155,0.0,2.0,99,0.00,,,0.35,,2013-05-29 13:22:00,
2013-05-29 09:32:00,64.0,63.0,30.02,SW,215,1.0,5.0,98,0.00,,,0.35,,2013-05-29 13:32:00,
2013-05-29 09:42:00,64.0,63.0,30.02,SW,215,1.0,5.0,98,0.00,,,0.35,,2013-05-29 13:42:00,
2013-05-29 09:53:00,64.0,63.0,30.02,SW,215,0.0,1.0,98,0.00,,,0.35,,2013-05-29 13:53:00,
2013-05-29 10:02:00,66.0,65.0,30.02,WSW,244,1.0,5.0,97,0.00,,,0.35,,2013-05-29 14:02:00,
2013-05-29 10:11:00,66.0,65.0,30.02,WSW,244,1.0,5.0,97,0.00,,,0.35,,2013-05-29 14:11:00,
2013-05-29 10:21:00,66.0,65.0,30.02,WSW,249,2.0,4.0,96,0.00,,,0.35,,2013-05-29 14:21:00,
2013-05-29 10:32:00,68.0,65.0,30.03,West,269,3.0,6.0,91,0.00,,,0.35,,2013-05-29 14:32:00,
2013-05-29 10:42:00,68.0,65.0,30.03,West,269,3.0,6.0,91,0.00,,,0.35,,2013-05-29 14:42:00,
2013-05-29 10:52:00,69.0,66.0,30.03,WNW,286,4.0,7.0,89,0.00,,,0.35,,2013-05-29 14:52:00,
2013-05-29 11:01:00,70.0,62.0,30.02,SE,130,1.0,5.0,76,0.00,,,0.35,,2013-05-29 15:01:00,
2013-05-29 11:11:00,70.0,62.0,30.02,SE,130,1.0,5.0,76,0.00,,,0.35,,2013-05-29 15:11:00,
2013-05-29 11:21:00,68.0,61.0,30.02,East,100,0.0,8.0,78,0.00,,,0.35,,2013-05-29 15:21:00,
2013-05-29 11:33:00,69.0,61.0,30.03,East,94,0.0,2.0,77,0.00,,,0.35,,2013-05-29 15:33:00,
2013-05-29 11:42:00,69.0,61.0,30.03,East,94,0.0,2.0,77,0.00,,,0.35,,2013-05-29 15:42:00,
2013-05-29 11:53:00,69.0,61.0,30.03,East,88,1.0,5.0,75,0.00,,,0.35,,2013-05-29 15:53:00,
2013-05-29 12:03:00,67.0,60.0,30.03,ESE,103,0.0,5.0,77,0.00,,,0.35,,2013-05-29 16:03:00,
2013-05-29 12:13:00,67.0,60.0,30.03,ESE,103,0.0,5.0,77,0.00,,,0.35,,2013-05-29 16:13:00,
2013-05-29 12:22:00,67.0,60.0,30.03,ESE,109,1.0,5.0,79,0.00,,,0.35,,2013-05-29 16:22:00,
2013-05-29 12:33:00,67.0,60.0,30.03,SE,133,2.0,6.0,78,0.00,,,0.35,,2013-05-29 16:33:00,
2013-05-29 12:42:00,67.0,60.0,30.03,SE,133,2.0,6.0,78,0.00,,,0.35,,2013-05-29 16:42:00,
2013-05-29 12:52:00,67.0,60.0,30.03,ESE,103,1.0,6.0,78,0.00,,,0.35,,2013-05-29 16:52:00,
2013-05-29 13:02:00,70.0,62.0,30.01,East,94,1.0,5.0,76,0.00,,,0.35,,2013-05-29 17:02:00,
2013-05-29 13:12:00,70.0,62.0,30.01,East,94,1.0,5.0,76,0.00,,,0.35,,2013-05-29 17:12:00,
2013-05-29 13:22:00,70.0,62.0,30.01,SE,146,2.0,6.0,76,0.00,,,0.35,,2013-05-29 17:22:00,
2013-05-29 13:32:00,72.0,62.0,30.00,East,93,1.0,3.0,72,0.00,,,0.33,,2013-05-29 17:32:00,
2013-05-29 13:42:00,72.0,62.0,30.00,East,93,1.0,3.0,72,0.00,,,0.33,,2013-05-29 17:42:00,
2013-05-29 13:52:00,72.0,63.0,30.00,SE,144,4.0,8.0,74,0.00,,,0.33,,2013-05-29 17:52:00,
2013-05-29 14:01:00,74.0,65.0,30.00,East,101,0.0,8.0,73,0.00,,,0.33,,2013-05-29 18:01:00,
2013-05-29 14:13:00,74.0,64.0,30.00,SSE,166,0.0,7.0,72,0.00,,,0.33,,2013-05-29 18:13:00,
2013-05-29 14:22:00,74.0,64.0,30.00,SSE,166,0.0,7.0,72,0.00,,,0.33,,2013-05-29 18:22:00,
2013-05-29 14:32:00,75.0,65.0,29.99,ESE,116,4.0,9.0,70,0.00,,,0.31,,2013-05-29 18:32:00,
2013-05-29 14:42:00,75.0,65.0,29.99,ESE,116,4.0,9.0,70,0.00,,,0.31,,2013-05-29 18:42:00,
2013-05-29 14:51:00,77.0,66.0,29.99,South,178,0.0,5.0,70,0.00,,,0.31,,2013-05-29 18:51:00,
2013-05-29 15:02:00,80.0,67.0,29.98,SSE,155,1.0,8.0,64,0.00,,,0.31,,2013-05-29 19:02:00,
2013-05-29 15:11:00,81.0,66.0,29.98,SE,129,3.0,9.0,60,0.00,,,0.31,,2013-05-29 19:11:00,
2013-05-29 15:22:00,81.0,66.0,29.98,SE,129,3.0,9.0,60,0.00,,,0.31,,2013-05-29 19:22:00,
2013-05-29 15:32:00,81.0,67.0,29.97,SE,139,1.0,12.0,62,0.00,,,0.26,,2013-05-29 19:32:00,
2013-05-29 15:44:00,81.0,67.0,29.97,SE,139,1.0,12.0,62,0.00,,,0.26,,2013-05-29 19:44:00,
2013-05-29 15:53:00,80.0,65.0,29.97,SE,142,4.0,12.0,60,0.00,,,0.26,,2013-05-29 19:53:00,
2013-05-29 16:03:00,81.0,65.0,29.97,South,171,1.0,11.0,59,0.00,,,0.26,,2013-05-29 20:03:00,
2013-05-29 16:11:00,81.0,65.0,29.97,South,171,1.0,11.0,59,0.00,,,0.26,,2013-05-29 20:11:00,
2013-05-29 16:23:00,82.0,65.0,29.97,SE,132,0.0,6.0,56,0.00,,,0.26,,2013-05-29 20:23:00,
2013-05-29 16:33:00,83.0,66.0,29.96,SE,139,2.0,5.0,56,0.00,,,0.12,,2013-05-29 20:33:00,
2013-05-29 16:42:00,83.0,66.0,29.96,SE,139,2.0,5.0,56,0.00,,,0.12,,2013-05-29 20:42:00,
2013-05-29 16:52:00,87.0,62.0,29.96,SSW,200,3.0,10.0,43,0.00,,,0.12,,2013-05-29 20:52:00,
2013-05-29 17:02:00,90.0,62.0,29.96,West,263,5.0,13.0,40,0.00,,,0.12,,2013-05-29 21:02:00,
2013-05-29 17:12:00,90.0,62.0,29.96,West,263,5.0,13.0,40,0.00,,,0.12,,2013-05-29 21:12:00,
2013-05-29 17:22:00,90.0,62.0,29.96,WSW,247,1.0,10.0,39,0.00,,,0.12,,2013-05-29 21:22:00,
2013-05-29 17:33:00,87.0,62.0,29.95,SW,221,2.0,12.0,43,0.00,,,0.11,,2013-05-29 21:33:00,
2013-05-29 17:43:00,87.0,62.0,29.95,SW,221,2.0,12.0,43,0.00,,,0.11,,2013-05-29 21:43:00,
2013-05-29 17:53:00,89.0,61.0,29.95,SW,218,0.0,7.0,40,0.00,,,0.11,,2013-05-29 21:53:00,
2013-05-29 18:03:00,86.0,62.0,29.94,South,179,2.0,9.0,44,0.00,,,0.11,,2013-05-29 22:03:00,
2013-05-29 18:12:00,86.0,62.0,29.94,South,179,2.0,9.0,44,0.00,,,0.11,,2013-05-29 22:12:00,
2013-05-29 18:23:00,88.0,61.0,29.94,WSW,257,7.0,15.0,40,0.00,,,0.11,,2013-05-29 22:23:00,
2013-05-29 18:34:00,88.0,61.0,29.94,SSW,209,6.0,12.0,41,0.00,,,0.06,,2013-05-29 22:34:00,
2013-05-29 18:42:00,88.0,61.0,29.94,SE,136,3.0,19.0,41,0.00,,,0.06,,2013-05-29 22:42:00,
2013-05-29 18:53:00,88.0,61.0,29.94,SE,136,3.0,19.0,41,0.00,,,0.06,,2013-05-29 22:53:00,
2013-05-29 19:02:00,88.0,61.0,29.94,WSW,250,3.0,11.0,41,0.00,,,0.06,,2013-05-29 23:02:00,
2013-05-29 19:12:00,88.0,61.0,29.94,WSW,250,3.0,11.0,41,0.00,,,0.06,,2013-05-29 23:12:00,
2013-05-29 19:22:00,87.0,60.0,29.94,West,272,3.0,15.0,41,0.00,,,0.06,,2013-05-29 23:22:00,
2013-05-29 19:33:00,87.0,61.0,29.94,WSW,243,1.0,10.0,42,0.00,,,0.00,,2013-05-29 23:33:00,
2013-05-29 19:42:00,86.0,61.0,29.94,WSW,240,1.0,10.0,43,0.00,,,0.00,,2013-05-29 23:42:00,
2013-05-29 19:53:00,86.0,61.0,29.94,WSW,240,1.0,10.0,43,0.00,,,0.00,,2013-05-29 23:53:00,
2013-05-29 20:02:00,85.0,61.0,29.94,SW,230,1.0,10.0,45,0.00,,,0.00,,2013-05-30 00:02:00,
2013-05-29 20:12:00,85.0,61.0,29.94,SW,230,1.0,10.0,45,0.00,,,0.00,,2013-05-30 00:12:00,
2013-05-29 20:22:00,84.0,61.0,29.94,SW,220,2.0,9.0,46,0.00,,,0.00,,2013-05-30 00:22:00,
2013-05-29 20:32:00,83.0,61.0,29.94,WSW,244,3.0,9.0,48,0.00,,,0.00,,2013-05-30 00:32:00,
2013-05-29 20:42:00,83.0,61.0,29.94,WSW,244,3.0,9.0,48,0.00,,,0.00,,2013-05-30 00:42:00,
2013-05-29 20:52:00,83.0,62.0,29.94,SSE,160,1.0,8.0,49,0.00,,,0.00,,2013-05-30 00:52:00,
2013-05-29 21:02:00,82.0,62.0,29.94,SW,221,2.0,8.0,51,0.00,,,0.00,,2013-05-30 01:02:00,
2013-05-29 21:11:00,82.0,62.0,29.94,SW,221,2.0,8.0,51,0.00,,,0.00,,2013-05-30 01:11:00,
2013-05-29 21:22:00,82.0,63.0,29.94,SSW,205,3.0,7.0,52,0.00,,,0.00,,2013-05-30 01:22:00,
2013-05-29 21:32:00,81.0,62.0,29.96,WSW,237,2.0,8.0,53,0.00,,,0.00,,2013-05-30 01:32:00,
2013-05-29 21:42:00,81.0,62.0,29.96,WSW,237,2.0,8.0,53,0.00,,,0.00,,2013-05-30 01:42:00,
2013-05-29 21:52:00,81.0,63.0,29.96,SSW,209,0.0,9.0,54,0.00,,,0.00,,2013-05-30 01:52:00,
2013-05-29 22:02:00,80.0,63.0,29.96,SSW,205,1.0,7.0,57,0.00,,,0.00,,2013-05-30 02:02:00,
2013-05-29 22:11:00,80.0,63.0,29.96,SSW,205,1.0,7.0,57,0.00,,,0.00,,2013-05-30 02:11:00,
2013-05-29 22:21:00,79.0,63.0,29.96,SW,220,1.0,7.0,58,0.00,,,0.00,,2013-05-30 02:21:00,
2013-05-29 22:32:00,79.0,64.0,29.97,SW,218,2.0,6.0,61,0.00,,,0.00,,2013-05-30 02:32:00,
2013-05-29 22:42:00,79.0,64.0,29.97,SW,218,2.0,6.0,61,0.00,,,0.00,,2013-05-30 02:42:00,
2013-05-29 22:52:00,79.0,64.0,29.97,SW,218,2.0,6.0,61,0.00,,,0.00,,2013-05-30 02:52:00,
2013-05-29 23:02:00,78.0,65.0,29.98,SW,228,3.0,9.0,65,0.00,,,0.00,,2013-05-30 03:02:00,
2013-05-29 23:11:00,78.0,65.0,29.98,SSW,196,1.0,8.0,65,0.00,,,0.00,,2013-05-30 03:11:00,
2013-05-29 23:21:00,78.0,65.0,29.98,SSW,196,1.0,8.0,65,0.00,,,0.00,,2013-05-30 03:21:00,
2013-05-29 23:33:00,78.0,66.0,30.00,SW,221,2.0,7.0,66,0.00,,,0.00,,2013-05-30 03:33:00,
2013-05-29 23:43:00,78.0,66.0,30.00,SW,221,2.0,7.0,66,0.00,,,0.00,,2013-05-30 03:43:00,
2013-05-29 23:53:00,78.0,66.0,30.00,WSW,248,1.0,6.0,66,0.00,,,0.00,,2013-05-30 03:53:00,